This is the latest recevied weather packets stored in our database for station/object G1OCN-WX. If no packets are shown the sender has not sent any weather packets the latest 1 day(s).
| Time | Temp. | Humidity | Pressure | Rain* | Wind** | Luminosity | Snow |
|---|---|---|---|---|---|---|---|
| 1778003959 | 14.44° C | 58% | 1012 hPa | 0 mm | 3.58 m/s, 44° | - | - |
| 1778003869 | 14.44° C | 58% | 1012 hPa | 0 mm | 4.02 m/s, 16° | - | - |
| 1778003809 | 14.44° C | 57% | 1012 hPa | 0 mm | 5.36 m/s, 18° | - | - |
| 1778003719 | 14.44° C | 57% | 1012 hPa | 0 mm | 5.36 m/s, 28° | - | - |
| 1778003659 | 14.44° C | 58% | 1012 hPa | 0 mm | 3.58 m/s, 32° | - | - |
| 1778003569 | 14.44° C | 58% | 1012 hPa | 0 mm | 3.58 m/s, 28° | - | - |
| 1778003479 | 14.44° C | 57% | 1012 hPa | 0 mm | 4.02 m/s, 23° | - | - |
| 1778003419 | 14.44° C | 57% | 1012 hPa | 0 mm | 4.02 m/s, 32° | - | - |
| 1778003329 | 14.44° C | 58% | 1012.1 hPa | 0 mm | 4.47 m/s, 40° | - | - |
| 1778003239 | 14.44° C | 57% | 1012.1 hPa | 0 mm | 4.47 m/s, 32° | - | - |
| 1778003179 | 14.44° C | 58% | 1012.1 hPa | 0 mm | 3.58 m/s, 45° | - | - |
| 1778003119 | 14.44° C | 58% | 1012.1 hPa | 0 mm | 3.58 m/s, 43° | - | - |
| 1778003059 | 14.44° C | 58% | 1012.1 hPa | 0 mm | 3.58 m/s, 34° | - | - |
| 1778002999 | 14.44° C | 57% | 1012.2 hPa | 0 mm | 4.02 m/s, 38° | - | - |
| 1778002909 | 14.44° C | 57% | 1012.1 hPa | 0 mm | 3.13 m/s, 29° | - | - |
| 1778002819 | 14.44° C | 58% | 1012.1 hPa | 0 mm | 2.68 m/s, 28° | - | - |
| 1778002759 | 14.44° C | 57% | 1012.1 hPa | 0 mm | 3.13 m/s, 44° | - | - |
| 1778002699 | 14.44° C | 57% | 1012.1 hPa | 0 mm | 4.02 m/s, 27° | - | - |
| 1778002639 | 14.44° C | 57% | 1012.1 hPa | 0 mm | 3.58 m/s, 28° | - | - |
| 1778002579 | 14.44° C | 58% | 1012.2 hPa | 0 mm | 3.58 m/s, 30° | - | - |
| 1778002519 | 14.44° C | 58% | 1012.1 hPa | 0 mm | 3.13 m/s, 43° | - | - |
| 1778002459 | 14.44° C | 57% | 1012.2 hPa | 0 mm | 3.58 m/s, 47° | - | - |
| 1778002398 | 14.44° C | 58% | 1012.1 hPa | 0 mm | 3.58 m/s, 34° | - | - |
| 1778002338 | 14.44° C | 58% | 1012.1 hPa | 0 mm | 4.02 m/s, 45° | - | - |
| 1778002278 | 14.44° C | 57% | 1012.1 hPa | 0 mm | 5.81 m/s, 40° | - | - |
* Rain latest hour (hover to see other rain measurements)
** Current wind speed in m/s (hover to see current wind gust speed)